Location: ???????
(41.2625°N, 22.9302°E)
Time: 14:43:28
(UTC+00:00)

Daily predictions for brighter satellites

Satellite Brightness Start Highest point End
(mag) Time Altitude Azimuth Time Altitude Azimuth Time Altitude Azimuth
Meteor 1-11 Rocket 4.4 18:13:19 10° N 18:18:58 42° ENE 18:24:32 10° SE
Cosmos 2233 Rocket 4.1 18:12:48 10° S 18:19:08 88° W 18:25:29 10° N
Cosmos 1656 4.1 18:14:27 10° SSW 18:19:59 69° WNW 18:25:31 10° NNE
Cosmos 1315 Rocket 2.9 18:16:00 10° N 18:20:03 64° ENE 18:24:01 10° SSE
SJ-6B 2.9 18:16:23 10° S 18:20:12 78° W 18:23:58 10° NNW
Cosmos 2263 Rocket 4.2 18:17:21 10° NNE 18:20:28 15° NE 18:23:35 10° E
Okean O Rocket 4.3 18:18:03 10° SW 18:20:58 18° W 18:23:55 10° NW
BREEZE-M DEB (TANK) 3.6 18:18:25 10° WNW 18:21:53 50° SW 18:26:30 10° SE
Cosmos 44 4.0 18:18:34 10° NW 18:22:42 44° WSW 18:26:50 10° S
Sich 1 3.8 18:18:35 10° NNW 18:22:51 54° W 18:27:03 10° S
Cosmos 2344 3.8 18:17:12 10° S 18:24:30 45° ESE 18:31:28 10° NE
Ariane Rocket 4.0 18:20:44 10° SE 18:25:06 30° ENE 18:29:31 10° N
USA 186 2.7 18:23:10 10° SSW 18:25:25 34° W 18:27:37 10° NNW
Cosmos 1470 Rocket 4.2 18:22:40 10° N 18:26:41 36° ENE 18:30:40 10° SE
OBJECT-B 2.8 18:24:29 10° SSW 18:26:57 25° W 18:29:27 10° NW
OAO 3 Rocket 3.9 18:23:12 10° WSW 18:27:47 40° S 18:32:24 10° ESE
Meteor 2-6 Rocket 4.3 18:23:54 10° SSW 18:29:17 79° W 18:34:48 10° N
Cosmos 1743 3.9 18:28:48 10° NNE 18:32:01 26° ENE 18:35:11 10° SE
Aureole 1 Rocket 2.7 18:29:21 10° S 18:32:30 38° ESE 18:35:20 10° NE
CSL-04 Rocket 4.3 18:29:08 10° S 18:34:19 58° WSW 18:39:38 10° NNW
Resurs 01 Rocket 2.1 18:32:07 10° SE 18:36:18 45° ENE 18:40:30 10° N
Cosmos 1515 Rocket 3.9 18:34:32 10° SSE 18:38:41 44° E 18:42:52 10° NNE
Cosmos 2227 Rocket 2.2 18:33:28 10° NNW 18:39:11 79° ENE 18:44:50 10° SSE
Landsat 7 3.8 18:35:52 10° SSE 18:40:34 81° ENE 18:45:19 10° N
Cosmos 921 Rocket 4.3 18:41:38 10° N 18:45:33 28° ENE 18:48:50 13° ESE
Cosmos 1980 Rocket 2.5 18:40:18 10° S 18:45:36 45° ESE 18:50:58 10° NE
Cosmos 1464 Rocket 4.2 18:41:45 10° SSE 18:47:45 53° E 18:53:42 10° NNE
PSLV R/B 3.8 18:43:54 10° NNE 18:47:57 80° ESE 18:51:59 10° S
IGS 5A 4.1 18:44:04 10° S 18:48:09 57° W 18:52:15 10° NNW
Okean-O 4.3 18:44:13 10° SSW 18:48:12 33° W 18:52:12 10° NNW
ATLAS 2AS CENTAUR R/B 3.2 18:44:57 10° S 18:52:17 46° ESE 18:59:29 10° NE
IRS-1A Rocket 4.3 18:47:25 10° SSE 18:53:01 72° ENE 18:58:47 10° N
Cosmos 2369 3.7 18:49:30 10° S 18:55:02 63° ESE 19:00:39 10° NNE
NOSS 3-4 (A) 4.0 18:51:35 10° SW 18:57:11 58° NW 19:03:11 10° NNE
NOSS 3-4 (C) 4.0 18:51:37 10° SW 18:57:14 59° NW 19:03:16 10° NNE
Cosmos 1354 Rocket 4.3 18:52:37 10° S 18:57:38 46° ESE 19:02:41 10° NNE
ARGOS Delta rocket 4.1 18:53:08 10° NNE 18:58:39 76° E 19:04:01 10° S
SPOT 3 Rocket 4.2 18:55:31 14° SE 18:59:27 39° ENE 19:04:13 10° N
Cosmos 1486 Rocket 4.3 18:57:49 10° SSW 19:03:07 75° WNW 19:08:25 10° NNE
MOS 1 4.3 18:57:56 10° SSE 19:03:36 85° WSW 19:09:18 10° NNW
Cosmos 1697 Rocket 3.2 18:58:49 10° SW 19:04:26 64° WNW 19:10:05 10° NNE
Nadezhda 4 Rocket 4.3 18:58:47 10° N 19:04:49 49° ENE 19:09:33 16° SSE
ISS -1.5 19:02:40 10° NNW 19:05:13 20° NNE 19:07:46 10° ENE
Cosmos 1536 2.8 19:03:01 10° N 19:07:04 86° E 19:10:29 14° S
Okean 1 3.9 19:04:39 17° SSE 19:07:15 37° E 19:10:59 10° NNE
RESURS DK-1 2.8 19:06:43 10° S 19:10:33 39° ESE 19:14:24 10° NE
H-2A R/B 3.2 19:06:57 10° N 19:10:49 43° WNW 19:14:43 10° SW
SL-4 R/B 2.2 19:09:30 10° WNW 19:14:04 76° SW 19:16:42 23° SE
MetOp-B 4.2 19:11:13 16° SSE 19:15:30 71° ENE 19:20:51 10° N
Cosmos 2297 Rocket 3.6 19:10:44 10° NW 19:15:46 34° WSW 19:20:48 10° SSW
ARIANE 5 R/B 4.5 19:16:07 14° E 19:18:07 18° ENE 19:21:06 10° NNE
ATLAS 3B R/B 4.2 19:13:27 10° NNW 19:19:43 29° NE 19:26:10 10° E
Meteor 2-9 Rocket 4.4 19:21:07 10° N 19:26:48 58° ENE 19:30:14 23° SSE
Timation 2 Rocket 4.2 19:20:54 10° NNW 19:27:31 74° ENE 19:32:07 22° SE
Cosmos 1184 Rocket 3.8 19:27:07 10° SSW 19:30:00 42° WNW 19:32:53 10° N
Cosmos 1503 Rocket 4.3 19:27:09 10° SSW 19:32:23 70° WNW 19:37:43 10° NNE
SL-16 R/B 3.1 19:31:42 24° SE 19:33:25 28° ESE 19:38:11 10° NE
ERS-1 Rocket 3.5 19:32:34 25° SE 19:35:03 44° ENE 19:39:48 10° N
Cosmos 1975 3.8 19:33:13 10° NNE 19:36:52 31° ENE 19:37:52 27° ESE
Cosmos 389 Rocket 3.6 19:37:03 10° NNW 19:40:21 40° W 19:42:29 19° SSW
Cosmos 1933 Rocket 4.2 19:38:30 10° NNW 19:42:51 52° W 19:46:00 18° SSW
SPOT 1/Viking Rocket 4.3 19:39:39 13° S 19:44:00 47° W 19:48:59 10° NNW
Helios 1A Rocket 2.8 19:42:53 36° SSE 19:44:26 73° ENE 19:48:26 10° N
EXPRESS MD2 3.1 19:40:10 10° WNW 19:45:22 67° SW 19:46:11 46° SSE
CZ-4B R/B 4.1 19:43:38 10° NNW 19:45:51 18° WNW 19:48:03 10° WSW
Meteor 2-21 4.4 19:40:20 10° N 19:46:28 85° E 19:50:18 25° S
GENESIS II 4.3 19:46:07 42° SSE 19:46:50 48° ESE 19:50:36 10° NE
CZ-2C R/B 3.9 19:42:50 10° NNE 19:47:32 55° E 19:49:32 32° SSE
Meteor 1-18 Rocket 4.2 19:44:24 23° S 19:48:03 67° E 19:53:39 10° NNE
Cosmos 1733 Rocket 4.2 19:45:53 10° NNE 19:49:44 28° ENE 19:50:39 26° E
Cosmos 2034 Rocket 4.2 19:44:26 10° SSW 19:50:41 72° W 19:57:03 10° N
SJ 16-02 1.8 19:48:53 10° SSW 19:53:11 60° WNW 19:57:31 10° N
Cosmos 2278 3.7 19:48:06 10° SSW 19:53:46 82° WNW 19:59:29 10° NNE
Cosmos 2292 Rocket 2.9 19:52:21 10° N 19:55:06 50° ENE 19:55:06 50° ENE
Cosmos 2360 Rocket 3.6 19:59:00 20° E 19:59:00 20° E 20:02:46 10° NE
NOSS 2-1 (C) 2.7 19:59:39 64° E 19:59:39 64° E 20:02:38 10° NE
Meteor 2-21 Rocket 4.4 19:54:10 10° N 20:00:16 81° E 20:03:25 31° SSE
Cosmos 1862 Rocket 4.3 20:00:24 35° ESE 20:00:50 35° E 20:04:56 10° NNE
Cosmos 2082 4.3 19:56:32 10° NW 20:01:55 48° WSW 20:04:59 24° SSW
Ariane Rocket 4.4 20:00:04 13° SSW 20:03:58 32° W 20:08:31 10° NNW
ASTRO F (AKARI) 4.2 20:04:31 68° ENE 20:04:31 68° ENE 20:07:32 10° N
Cosmos 2263 Rocket 2.1 19:59:37 10° NNW 20:05:14 88° ENE 20:07:29 38° SSE
SPOT 5 3.1 20:06:31 34° S 20:08:54 79° WSW 20:14:05 10° NNW
NOSS 2-1 (D) 2.6 20:09:53 88° SW 20:09:56 89° NNW 20:13:06 10° NE
Terra 1.8 20:09:04 44° SSE 20:10:30 74° ENE 20:15:17 10° N
OAO 3 Rocket 4.4 20:06:40 10° WSW 20:10:29 26° SSW 20:10:29 26° SSW
Cosmos 2279 Rocket 4.2 20:08:57 35° SE 20:11:07 50° E 20:17:06 10° NNE
Meteor 2-16 Rocket 4.4 20:06:06 10° N 20:12:18 85° E 20:15:04 35° S
Resurs 01 Rocket 4.1 20:10:14 10° SW 20:13:00 16° W 20:15:47 10° NW
Cosmos 1441 Rocket 4.1 20:16:07 33° ENE 20:16:07 33° ENE 20:18:52 10° NNE
Cosmos 1346 Rocket 2.7 20:14:59 63° SSE 20:15:33 80° E 20:19:35 10° NNE
USA 215 3.8 20:10:13 10° ENE 20:16:05 34° SE 20:16:25 34° SE
Cosmos 990 Rocket 4.4 20:17:54 41° ESE 20:18:23 42° ESE 20:23:18 10° NNE
SAR-Lupe-1 4.4 20:17:26 10° NNE 20:20:29 52° ENE 20:20:29 52° ENE
Cosmos 1980 Rocket 4.2 20:25:00 10° WSW 20:29:46 28° NW 20:34:36 10° N
Iridium 2 4.2 20:26:32 10° N 20:29:44 45° ENE 20:29:44 45° ENE
Cosmos 1898 Rocket 4.2 20:31:36 36° E 20:31:36 36° E 20:36:23 10° NE
SL-24 R/B - RUBIN 2 3.4 20:29:42 10° NNW 20:34:08 87° ENE 20:34:40 69° SE
Transit 2A Rocket 4.4 20:32:18 10° NNW 20:36:42 76° ENE 20:36:59 72° E
Spot 2 Rocket 4.4 20:35:42 28° SW 20:37:36 39° W 20:42:20 10° NNW
Cosmos 2322 Rocket 2.1 20:36:17 49° S 20:37:45 71° ESE 20:43:21 10° NNE
Cosmos 2180 Rocket 4.5 20:36:36 46° SSE 20:38:13 62° E 20:44:16 10° NNE
Okean 1-7 4.1 20:40:37 31° ENE 20:40:37 31° ENE 20:43:56 10° NNE
ISS -2.7 20:39:01 10° NW 20:41:27 45° NW 20:41:27 45° NW
Cosmos 2333 Rocket 3.4 20:43:20 26° E 20:43:20 26° E 20:47:14 10° NE
ATLAS 2AS CENTAUR R/B 4.0 20:35:53 10° WSW 20:43:19 46° NW 20:50:33 10° NNE
Meteor 2-4 Rocket 4.4 20:40:22 23° SW 20:43:50 52° WNW 20:49:22 10° N
Cosmos 1844 Rocket 3.5 20:39:35 10° N 20:44:50 39° ENE 20:46:18 33° E
Cosmos 1805 3.6 20:49:58 10° N 20:53:18 57° NNE 20:53:18 57° NNE
ARIANE 5 R/B 3.2 20:53:39 44° WSW 20:54:11 46° W 20:58:31 10° NNW
ATLAS CENTAUR R/B 3.3 20:56:24 10° NNW 21:00:30 26° NE 21:01:51 23° ENE
Cosmos 44 Rocket 3.8 20:57:01 10° NW 21:01:28 45° WSW 21:01:28 45° WSW
Cosmos 2219 Rocket 3.4 21:03:06 27° E 21:03:06 27° E 21:06:57 10° NE
Cosmos 1733 3.8 21:03:32 10° N 21:06:32 53° NNW 21:06:32 53° NNW
Cosmos 1844 4.2 21:02:44 10° NNW 21:08:25 52° ENE 21:09:35 45° E
Cosmos 1766 4.2 21:05:05 10° N 21:08:07 42° NE 21:08:07 42° NE
Cosmos 1703 Rocket 3.8 21:11:08 61° NE 21:11:08 61° NE 21:15:01 10° NNE
ATLAS 3B R/B 2.9 21:03:45 10° NW 21:11:12 78° WSW 21:13:24 50° SSE
SL-16 R/B 3.3 21:13:28 18° WSW 21:17:17 41° WNW 21:22:40 10° N
Cosmos 1655 Rocket 3.9 21:11:53 10° N 21:18:08 78° E 21:19:13 61° SSE
Meteor 1-4 Rocket 4.0 21:17:20 10° NNW 21:19:36 33° NW 21:19:36 33° NW
CZ-4C R/B 4.1 21:16:35 10° NNW 21:23:08 36° NE 21:29:11 15° ESE
Meteor 2-10 3.9 21:22:25 10° NNW 21:27:38 73° W 21:27:49 72° WSW
Cosmos 1782 Rocket 4.1 21:24:00 10° N 21:27:41 52° NE 21:27:41 52° NE
Geosat 4.3 21:28:35 52° WSW 21:28:35 52° WSW 21:33:27 10° NW
Cosmos 2237 Rocket 4.4 21:33:08 11° E 21:33:08 11° E 21:34:13 10° ENE
ERS-2 4.1 21:30:51 10° NNE 21:32:29 23° NE 21:32:29 23° NE
COSMOS 2428 3.5 21:35:55 37° E 21:35:55 37° E 21:40:27 10° NE
Meteor 1-15 Rocket 4.1 21:31:46 10° N 21:37:28 84° W 21:37:56 75° SSW
Cosmos 1908 Rocket 4.2 21:34:59 10° NNW 21:38:37 48° WNW 21:38:37 48° WNW
Cosmos 923 Rocket 4.3 21:36:57 10° NNW 21:42:10 55° WSW 21:42:10 55° WSW
Cosmos 2360 Rocket 2.7 21:40:43 42° WSW 21:42:13 55° WNW 21:47:48 10° NNE
Cosmos 1937 Rocket 3.5 21:42:39 68° W 21:43:00 71° WNW 21:48:17 10° NNE
Cosmos 2242 Rocket 3.9 21:43:56 64° NW 21:43:56 64° NW 21:48:03 10° N
ALOS 2 3.1 21:44:37 54° NE 21:44:37 54° NE 21:48:21 10° N
Cosmos 1300 Rocket 4.5 21:40:21 10° N 21:43:49 41° NE 21:43:49 41° NE
Cosmos 1470 4.1 21:41:13 10° N 21:43:46 36° NNE 21:43:46 36° NNE
Cosmos 1726 3.7 21:42:53 10° NNW 21:45:09 34° NNW 21:45:09 34° NNW
Cosmos 2333 4.0 21:47:08 77° SW 21:47:32 84° WNW 21:53:12 10° NNE
Cosmos 2263 Rocket 4.4 21:46:32 10° WNW 21:48:15 11° W 21:49:11 11° WSW
Terra 4.3 21:47:57 11° W 21:48:46 11° W 21:50:12 10° WNW
Cosmos 2266 Rocket 4.2 21:44:20 10° NNW 21:50:26 58° W 21:51:20 52° SW
Cosmos 1867 4.0 21:53:07 51° E 21:53:07 51° E 21:57:40 10° NE
USA 215 3.5 21:52:51 10° NE 21:59:21 69° NW 22:03:43 22° WSW
Meteor 2-17 Rocket 4.3 21:54:55 10° N 22:01:07 82° E 22:01:45 72° SSE
Cosmos 1626 4.3 22:03:15 20° NE 22:03:15 20° NE 22:04:47 10° NNE
ATLAS 5 CENTAUR R/B 4.3 21:48:16 10° NW 22:02:12 42° NNE 22:05:22 20° E
Intercosmos 25 4.3 21:54:28 10° N 22:02:35 74° W 22:03:09 68° SW
Cosmos 2112 Rocket 4.3 21:57:33 10° NNW 22:02:27 55° W 22:02:27 55° W
Cosmos 1680 Rocket 4.1 21:58:43 10° NNW 22:03:26 46° W 22:03:26 46° W
Cosmos 2278 Rocket 3.9 21:59:55 10° N 22:04:38 26° NE 22:07:02 20° E
ADEOS Rocket 2.8 22:05:31 64° ESE 22:06:02 68° ENE 22:11:57 10° N
Spot 4 4.5 22:07:13 46° WNW 22:07:13 46° WNW 22:11:20 10° NNW
Meteor 1-22 Rocket 4.4 22:04:32 10° NNW 22:10:27 66° W 22:10:54 64° WSW
Cosmos 1818 3.8 22:07:17 10° NW 22:12:08 59° W 22:12:08 59° W
Cosmos 1674 4.4 22:16:06 30° NNE 22:16:06 30° NNE 22:18:10 10° NNE
Sich 1 Rocket 4.2 22:13:00 10° N 22:16:32 54° NNE 22:16:32 54° NNE
Cosmos 2322 Rocket 4.4 22:18:28 10° W 22:22:22 19° NW 22:26:17 10° N
Cosmos 1758 4.5 22:20:21 10° N 22:23:04 41° N 22:23:04 41° N
Lacrosse 5 4.1 22:27:49 14° E 22:27:49 14° E 22:28:55 10° ENE
Cosmos 2322 3.9 22:25:29 56° W 22:26:12 61° WNW 22:31:53 10° NNE
Cosmos 2333 Rocket 3.0 22:25:18 38° W 22:26:36 44° WNW 22:32:00 10° NNE
Cosmos 371 Rocket 4.3 22:28:14 37° ENE 22:28:14 37° ENE 22:31:52 10° NE
Cosmos 1844 Rocket 3.9 22:23:48 10° NW 22:27:57 28° W 22:27:57 28° W
USA 267 3.4 22:29:45 32° ESE 22:33:03 71° NE 22:39:34 10° NW
SL-08 ROCKET BODY 4.4 22:28:42 10° NNW 22:34:28 62° W 22:34:42 61° WSW
Cosmos 1461 3.9 22:30:55 10° NNW 22:33:55 45° NNW 22:33:55 45° NNW
USA 229 DEB 4.3 22:31:35 10° NNW 22:38:55 61° NE 22:43:19 27° ESE
ASTEX 1 3.4 22:34:01 10° N 22:38:32 75° NNE 22:38:32 75° NNE
USA 229 4.3 22:31:41 10° NNW 22:39:00 60° NE 22:43:27 27° ESE
ATLAS CENTAUR R/B 3.0 22:34:56 10° NW 22:37:50 31° WNW 22:37:50 31° WNW
S3M 4.1 22:39:28 59° SE 22:40:16 65° E 22:46:34 10° NNE
Cosmos 1553 Rocket 3.8 22:43:37 69° SW 22:44:14 75° W 22:50:26 10° N
Cosmos 1674 Rocket 4.1 22:46:04 54° NNE 22:46:04 54° NNE 22:49:27 10° N
Cosmos 2219 Rocket 3.1 22:44:47 35° W 22:45:59 40° WNW 22:51:14 10° N
Cosmos 2221 Rocket 4.3 22:51:06 48° NW 22:51:06 48° NW 22:54:39 10° N
Cosmos 2150 Rocket 4.0 22:52:05 73° ENE 22:52:05 73° ENE 22:56:57 10° NNE
Meteor 1-16 Rocket 4.2 22:50:57 10° N 22:56:55 84° E 22:57:27 75° SSE
Cosmos 494 Rocket 3.9 22:51:56 10° NNW 22:56:50 81° N 22:56:50 81° N
Cosmos 1048 Rocket 3.9 22:52:18 10° NNW 22:57:08 77° NW 22:57:08 77° NW
CZ-2D R/B 4.0 22:55:07 10° NE 22:58:43 18° E 22:59:34 18° ESE
Cosmos 1378 Rocket 4.1 23:00:50 55° NNW 23:00:50 55° NNW 23:04:30 10° N
NOSS 0 Rocket 3.8 23:01:02 70° SW 23:01:50 85° WNW 23:08:07 10° NNE
Cosmos 1125 Rocket 3.4 23:03:17 82° NW 23:03:17 82° NW 23:08:26 10° NNE
USA 308 3.8 23:05:01 46° NE 23:05:01 46° NE 23:08:04 10° NE
NOSS 3-1 (A) 4.0 22:57:57 10° NW 23:05:41 82° WSW 23:08:57 44° SSE
Cosmos 1300 4.0 23:06:23 10° N 23:09:06 38° NE 23:09:06 38° NE
CZ-4C R/B 3.0 23:04:45 10° NW 23:12:14 66° WSW 23:14:17 51° S
NOSS 3-1 (C) 4.4 23:05:23 10° NW 23:12:51 48° WSW 23:14:03 46° SW
Cosmos 2237 Rocket 2.0 23:14:56 78° SSW 23:15:21 88° WNW 23:21:06 10° NNE
SL-14 R/B 4.3 23:18:00 43° N 23:18:00 43° N 23:20:45 10° N
Cosmos 1975 Rocket 3.9 23:19:32 44° E 23:19:32 44° E 23:23:31 10° NNE
COSMOS 2428 4.0 23:17:53 27° W 23:19:31 32° WNW 23:24:35 10° N
Cosmos 1025 Rocket 4.0 23:23:16 38° E 23:23:16 38° E 23:27:02 10° NNE
NOSS 2-2 (D) 4.4 23:18:07 10° NW 23:23:31 86° WSW 23:25:34 49° SSE
Meteor 2-12 Rocket 4.3 23:17:50 10° N 23:23:55 86° W 23:24:51 66° S
Cosmos 1745 Rocket 4.0 23:18:13 10° NNW 23:24:20 61° W 23:25:01 57° WSW
Resurs 1-4 Rocket 3.2 23:20:22 10° NNE 23:25:04 32° E 23:25:56 30° ESE
USA 305 3.8 23:26:45 43° NW 23:26:47 43° NNW 23:30:47 10° NE
Cosmos 405 Rocket 4.5 23:28:20 25° NW 23:28:20 25° NW 23:30:36 10° NNW
Cosmos 332 Rocket 3.7 23:29:39 83° ENE 23:29:39 83° ENE 23:34:19 10° NNE
Cosmos 1943 Rocket 3.5 23:28:07 10° N 23:33:21 36° ENE 23:37:57 13° ESE
Cosmos 1437 Rocket 4.4 23:31:39 10° NNW 23:33:34 25° NW 23:33:34 25° NW
Lacrosse 5 rocket 2.8 23:39:06 28° E 23:39:06 28° E 23:41:26 10° ENE
ADEOS II 3.8 23:34:54 10° NE 23:38:58 22° E 23:40:44 19° ESE
GP-B 3.1 23:37:52 10° N 23:42:03 76° NW 23:42:03 76° NW
Thor Agena Rocket 3.4 23:37:45 10° NNE 23:43:04 89° ESE 23:43:43 70° SSW
Cosmos 1953 3.9 23:42:26 10° NNW 23:44:46 26° NW 23:44:46 26° NW
Cosmos 2278 Rocket 2.5 23:43:30 10° NW 23:48:51 48° WSW 23:48:51 48° WSW
EO 1 Delta rocket 4.0 23:46:09 10° N 23:50:51 65° WNW 23:51:24 60° WSW
Cosmos 1544 Rocket 4.5 23:47:16 10° N 23:51:29 42° ENE 23:52:26 36° ESE
